| time (UTC) | temp F | wind direction | speed knots | gust knots | rain 1hr in | rain 24hr in | rain mn in | humidity % | barometer mb |
| 20260510113014 | 61 | 360 | 6.1 | 13.0 | 0.00 | 0.00 | 0.00 | 50 | 1018.2 |
| 20260510111512 | 61 | 360 | 6.1 | 14.8 | 0.00 | 0.00 | 0.00 | 50 | 1018.3 |
| 20260510110012 | 60 | 360 | 6.1 | 12.2 | 0.00 | 0.00 | 0.00 | 51 | 1018.5 |
| 20260510104509 | 60 | 360 | 7.0 | 16.5 | 0.00 | 0.00 | 0.00 | 51 | 1018.6 |
| 20260510103008 | 59 | 360 | 6.1 | 11.3 | 0.00 | 0.00 | 0.00 | 52 | 1018.6 |
| 20260510101509 | 59 | 360 | 6.1 | 12.2 | 0.00 | 0.00 | 0.00 | 51 | 1018.7 |
| 20260510100005 | 59 | 360 | 5.2 | 14.8 | 0.00 | 0.00 | 0.00 | 51 | 1019.0 |
| 20260510094504 | 59 | 360 | 7.0 | 13.0 | 0.00 | 0.00 | 0.00 | 50 | 1019.0 |
| 20260510093002 | 59 | 360 | 7.0 | 15.6 | 0.00 | 0.00 | 0.00 | 50 | 1019.1 |
| 20260510091559 | 59 | 360 | 5.2 | 13.9 | 0.00 | 0.00 | 0.00 | 50 | 1019.3 |
| 20260510090100 | 59 | 360 | 5.2 | 13.0 | 0.00 | 0.00 | 0.00 | 50 | 1019.3 |
| 20260510084558 | 59 | 360 | 4.3 | 14.8 | 0.00 | 0.00 | 0.00 | 50 | 1019.2 |
| 20260510083056 | 58 | 360 | 6.1 | 13.9 | 0.00 | 0.00 | 0.00 | 51 | 1019.4 |
| 20260510081554 | 58 | 69 | 4.3 | 15.6 | 0.00 | 0.00 | 0.00 | 50 | 1019.5 |
| 20260510080059 | 59 | 360 | 6.1 | 11.3 | 0.00 | 0.00 | 0.00 | 46 | 1019.5 |
| 20260510074601 | 58 | 26 | 4.3 | 12.2 | 0.00 | 0.00 | 0.00 | 44 | 1019.5 |
| 20260510073049 | 58 | 78 | 7.0 | 12.2 | 0.00 | 0.00 | 0.00 | 44 | 1019.6 |
| 20260510071545 | 57 | 360 | 6.1 | 13.0 | 0.00 | 0.00 | 0.00 | 45 | 1019.8 |
| 20260510070052 | 56 | 360 | 6.1 | 10.4 | 0.00 | 0.00 | 0.00 | 46 | 1019.7 |
| 20260510064538 | 55 | 360 | 5.2 | 13.0 | 0.00 | 0.00 | 0.00 | 46 | 1019.7 |
| 20260510063039 | 54 | 65 | 3.5 | 10.4 | 0.00 | 0.00 | 0.00 | 48 | 1019.6 |
| 20260510061531 | 53 | 360 | 4.3 | 9.6 | 0.00 | 0.00 | 0.00 | 49 | 1019.7 |
| 20260510060032 | 53 | 360 | 3.5 | 9.6 | 0.00 | 0.00 | 0.00 | 53 | 1019.8 |
| 20260510054525 | 52 | 69 | 2.6 | 7.8 | 0.00 | 0.00 | 0.00 | 56 | 1019.8 |
| 20260510053023 | 51 | 360 | 2.6 | 7.8 | 0.00 | 0.00 | 0.00 | 57 | 1019.7 |
| 20260510051522 | 51 | 360 | 2.6 | 5.2 | 0.00 | 0.00 | 0.00 | 58 | 1019.8 |
| 20260510050020 | 51 | 360 | 2.6 | 5.2 | 0.00 | 0.00 | 0.00 | 58 | 1019.5 |
| 20260510044518 | 51 | 38 | 1.7 | 3.5 | 0.00 | 0.00 | 0.00 | 58 | 1019.7 |
| 20260510043017 | 51 | 360 | 1.7 | 5.2 | 0.00 | 0.00 | 0.00 | 58 | 1019.8 |
| 20260510041514 | 51 | 55 | 3.5 | 7.0 | 0.00 | 0.00 | 0.00 | 58 | 1019.6 |
| 20260510040016 | 51 | 360 | 3.5 | 7.8 | 0.00 | 0.00 | 0.00 | 60 | 1019.6 |
| 20260510034513 | 51 | 360 | 2.6 | 7.0 | 0.00 | 0.00 | 0.00 | 61 | 1019.6 |
| 20260510033011 | 51 | 360 | 3.5 | 9.6 | 0.00 | 0.00 | 0.00 | 62 | 1019.5 |
| 20260510031508 | 51 | 40 | 2.6 | 7.8 | 0.00 | 0.00 | 0.00 | 62 | 1019.7 |
| 20260510030006 | 51 | 42 | 3.5 | 5.2 | 0.00 | 0.00 | 0.00 | 61 | 1019.8 |
| 20260510024505 | 51 | 51 | 2.6 | 5.2 | 0.00 | 0.00 | 0.00 | 61 | 1019.9 |
| 20260510023002 | 51 | 360 | 3.5 | 5.2 | 0.00 | 0.00 | 0.00 | 60 | 1020.0 |
| 20260510021600 | 51 | 55 | 2.6 | 7.0 | 0.00 | 0.00 | 0.00 | 59 | 1020.1 |
| 20260510020006 | 52 | 54 | 1.7 | 5.2 | 0.00 | 0.00 | 0.00 | 57 | 1020.1 |
| 20260510014501 | 51 | 71 | 2.6 | 5.2 | 0.00 | 0.00 | 0.00 | 56 | 1020.2 |
| 20260510013001 | 51 | 49 | 3.5 | 6.1 | 0.00 | 0.00 | 0.00 | 56 | 1020.2 |
| 20260510011502 | 51 | 23 | 1.7 | 5.2 | 0.00 | 0.00 | 0.00 | 56 | 1020.1 |
| 20260510010103 | 52 | 360 | 1.7 | 5.2 | 0.00 | 0.00 | 0.00 | 56 | 1020.3 |
| 20260510004559 | 52 | 63 | 1.7 | 4.3 | 0.00 | 0.00 | 0.00 | 56 | 1020.2 |
| 20260510003104 | 52 | 360 | 1.7 | 7.0 | 0.00 | 0.00 | 0.00 | 56 | 1020.5 |
| 20260510001556 | 52 | 60 | 1.7 | 3.5 | 0.00 | 0.00 | 0.00 | 56 | 1020.6 |
| 20260510000100 | 53 | 61 | 1.7 | 4.3 | 0.00 | 0.00 | 0.00 | 55 | 1020.8 |
| 20260509234608 | 53 | 360 | 1.7 | 5.2 | 0.00 | 0.00 | 0.00 | 55 | 1020.7 |
| 20260509233057 | 53 | 360 | 2.6 | 5.2 | 0.00 | 0.00 | 0.00 | 55 | 1020.8 |
| 20260509231557 | 54 | 53 | 2.6 | 6.1 | 0.00 | 0.00 | 0.00 | 54 | 1020.9 |
| 20260509230057 | 54 | 360 | 3.5 | 7.0 | 0.00 | 0.00 | 0.00 | 54 | 1020.8 |
| 20260509224555 | 53 | 360 | 2.6 | 5.2 | 0.00 | 0.00 | 0.00 | 55 | 1021.0 |
| 20260509223059 | 54 | 360 | 1.7 | 5.2 | 0.00 | 0.00 | 0.00 | 55 | 1021.0 |
| 20260509221553 | 54 | 360 | 2.6 | 5.2 | 0.00 | 0.00 | 0.00 | 56 | 1021.0 |
| 20260509214550 | 54 | 71 | 1.7 | 4.3 | 0.00 | 0.00 | 0.00 | 55 | 1020.7 |
| 20260509213048 | 54 | 75 | 1.7 | 5.2 | 0.00 | 0.00 | 0.00 | 55 | 1020.8 |
| 20260509211550 | 55 | 26 | 2.6 | 5.2 | 0.00 | 0.00 | 0.00 | 55 | 1020.8 |
| 20260509210024 | 55 | 42 | 1.7 | 7.0 | 0.00 | 0.00 | 0.00 | 54 | 1020.7 |
| 20260509204529 | 55 | 34 | 2.6 | 7.0 | 0.00 | 0.00 | 0.00 | 54 | 1020.8 |
| 20260509203019 | 55 | 360 | 2.6 | 5.2 | 0.00 | 0.00 | 0.00 | 53 | 1020.7 |
| 20260509201517 | 56 | 360 | 1.7 | 7.0 | 0.00 | 0.00 | 0.00 | 53 | 1020.7 |
| 20260509200016 | 56 | 34 | 2.6 | 5.2 | 0.00 | 0.00 | 0.00 | 52 | 1020.7 |
| 20260509194515 | 57 | 42 | 2.6 | 7.0 | 0.00 | 0.00 | 0.00 | 52 | 1020.6 |
| 20260509193025 | 57 | 27 | 2.6 | 7.8 | 0.00 | 0.00 | 0.00 | 51 | 1020.5 |
| 20260509191514 | 58 | 28 | 2.6 | 12.2 | 0.00 | 0.00 | 0.00 | 49 | 1020.6 |
| 20260509190012 | 59 | 44 | 2.6 | 9.6 | 0.00 | 0.00 | 0.00 | 47 | 1020.4 |
| 20260509184511 | 60 | 33 | 2.6 | 7.8 | 0.00 | 0.00 | 0.00 | 43 | 1020.3 |
| 20260509183007 | 61 | 360 | 3.5 | 7.8 | 0.00 | 0.00 | 0.00 | 38 | 1020.0 |
| 20260509181506 | 62 | 360 | 3.5 | 10.4 | 0.00 | 0.00 | 0.00 | 35 | 1019.8 |
| 20260509180005 | 62 | 26 | 3.5 | 9.6 | 0.00 | 0.00 | 0.00 | 35 | 1019.9 |
| 20260509174504 | 63 | 360 | 3.5 | 10.4 | 0.00 | 0.00 | 0.00 | 38 | 1019.7 |
| 20260509173003 | 63 | 360 | 3.5 | 9.6 | 0.00 | 0.00 | 0.00 | 37 | 1019.8 |
| 20260509171506 | 64 | 63 | 2.6 | 7.8 | 0.00 | 0.00 | 0.00 | 36 | 1020.0 |
| 20260509170004 | 64 | 360 | 3.5 | 9.6 | 0.00 | 0.00 | 0.00 | 37 | 1020.1 |
| 20260509164501 | 65 | 360 | 3.5 | 9.6 | 0.00 | 0.00 | 0.00 | 38 | 1020.1 |
| 20260509163006 | 66 | 48 | 3.5 | 9.6 | 0.00 | 0.00 | 0.00 | 38 | 1020.1 |
| 20260509161501 | 66 | 47 | 3.5 | 10.4 | 0.00 | 0.00 | 0.00 | 38 | 1020.1 |
| 20260509160002 | 66 | 360 | 0.9 | 7.8 | 0.00 | 0.00 | 0.00 | 40 | 1020.0 |
| 20260509154501 | 67 | 360 | 1.7 | 7.0 | 0.00 | 0.00 | 0.00 | 40 | 1020.0 |
| 20260509153007 | 67 | 46 | 3.5 | 11.3 | 0.00 | 0.00 | 0.00 | 38 | 1019.8 |
| 20260509151503 | 67 | 360 | 3.5 | 13.0 | 0.00 | 0.00 | 0.00 | 39 | 1020.0 |
| 20260509150001 | 68 | 360 | 3.5 | 13.0 | 0.00 | 0.00 | 0.00 | 40 | 1020.0 |
| 20260509144613 | 68 | 23 | 3.5 | 10.4 | 0.00 | 0.00 | 0.00 | 38 | 1020.1 |
| 20260509143057 | 68 | 360 | 2.6 | 10.4 | 0.00 | 0.00 | 0.00 | 39 | 1020.3 |
| 20260509141556 | 67 | 360 | 1.7 | 9.6 | 0.00 | 0.00 | 0.00 | 38 | 1020.3 |
| 20260509140107 | 67 | 22 | 2.6 | 5.2 | 0.00 | 0.00 | 0.00 | 37 | 1020.4 |
| 20260509134554 | 67 | 74 | 1.7 | 7.0 | 0.00 | 0.00 | 0.00 | 36 | 1020.6 |
| 20260509133101 | 68 | 28 | 1.7 | 7.0 | 0.00 | 0.00 | 0.00 | 36 | 1020.9 |
| 20260509131558 | 66 | 360 | 1.7 | 8.7 | 0.00 | 0.00 | 0.00 | 36 | 1020.9 |
| 20260509130059 | 67 | 30 | 2.6 | 8.7 | 0.00 | 0.00 | 0.00 | 36 | 1021.0 |
| 20260509124555 | 68 | 243 | 0.9 | 4.3 | 0.00 | 0.00 | 0.00 | 34 | 1021.2 |
| 20260509123048 | 68 | 360 | 2.6 | 6.1 | 0.00 | 0.00 | 0.00 | 33 | 1021.4 |
| 20260509121558 | 69 | 76 | 0.9 | 7.8 | 0.00 | 0.00 | 0.00 | 34 | 1021.4 |
| 20260509120046 | 68 | 132 | 1.7 | 5.2 | 0.00 | 0.00 | 0.00 | 38 | 1021.5 |
| 20260509114545 | 68 | 61 | 1.7 | 7.8 | 0.00 | 0.00 | 0.00 | 37 | 1021.7 |